This is the latest recevied weather packets stored in our database for station/object DB0RV-13. If no packets are shown the sender has not sent any weather packets the latest 1 day(s).
| Time | Temp. | Humidity | Pressure | Rain* | Wind** | Luminosity | Snow |
|---|---|---|---|---|---|---|---|
| 1778009101 | 11.11° C | 89% | 1008.8 hPa | - | 1.34 m/s, 184° | - | - |
| 1778008802 | 11.11° C | 89% | 1008.7 hPa | - | 1.79 m/s, 198° | - | - |
| 1778008501 | 11.11° C | 88% | 1008.7 hPa | - | 2.68 m/s, 198° | - | - |
| 1778008202 | 11.67° C | 85% | 1008.7 hPa | - | 2.24 m/s, 196° | - | - |
| 1778007902 | 11.67° C | 81% | 1008.7 hPa | - | 2.68 m/s, 223° | - | - |
| 1778007602 | 11.67° C | 83% | 1008.5 hPa | - | 3.13 m/s, 248° | - | - |
| 1778007302 | 11.67° C | 85% | 1008.8 hPa | - | 3.58 m/s, 248° | - | - |
| 1778007002 | 11.67° C | 83% | 1008.6 hPa | - | 3.13 m/s, 220° | - | - |
| 1778006702 | 11.67° C | 82% | 1008.6 hPa | - | 1.79 m/s, 218° | - | - |
| 1778006401 | 12.22° C | 79% | 1008.4 hPa | - | 3.13 m/s, 227° | - | - |
| 1778006102 | 12.78° C | 75% | 1008.4 hPa | - | 2.24 m/s, 242° | - | - |
| 1778005802 | 13.33° C | 72% | 1008.2 hPa | - | 2.68 m/s, 249° | - | - |
| 1778005502 | 13.89° C | 70% | 1008 hPa | - | 2.68 m/s, 247° | - | - |
| 1778005201 | 13.89° C | 70% | 1008.1 hPa | - | 3.13 m/s, 258° | - | - |
| 1778004902 | 13.89° C | 69% | 1007.9 hPa | - | 3.58 m/s, 281° | - | - |
| 1778004602 | 14.44° C | 69% | 1007.7 hPa | - | 3.13 m/s, 271° | - | - |
| 1778004302 | 14.44° C | 69% | 1007.7 hPa | - | 2.68 m/s, 245° | - | - |
| 1778004002 | 15° C | 69% | 1007.5 hPa | - | 1.79 m/s, 250° | - | - |
| 1778003701 | 15° C | 68% | 1007.6 hPa | - | 2.24 m/s, 251° | - | - |
| 1778003402 | 15° C | 67% | 1007.4 hPa | - | 1.79 m/s, 261° | - | - |
| 1778003103 | 15° C | 66% | 1007.4 hPa | - | 1.79 m/s, 268° | - | - |
| 1778002802 | 15° C | 65% | 1007.4 hPa | - | 0.89 m/s, 272° | - | - |
| 1778002501 | 15° C | 64% | 1007.4 hPa | - | 1.34 m/s, 276° | - | - |
| 1778002202 | 15.56° C | 63% | 1007.4 hPa | - | 2.24 m/s, 285° | - | - |
| 1778001902 | 15.56° C | 61% | 1007.3 hPa | - | 0.89 m/s, 267° | - | - |
* Rain since midnight (hover to see other rain measurements)
** Current wind speed in m/s (hover to see current wind gust speed)